IK5NLA Vaiano IT current weather conditions

sailwx.info

Wind from 342

Air temperature 11.7° C
Dewpoint 9.9° C

Last reported at 2014-Nov-24 03:40 UTC.
Time now 2014-Nov-24 04:07 UTC

Location: N 43°58' E 011°06'.
View on Google Maps.

See reports from other nearby stations

  
Tides and Currents Weather Stations Pressure Air Temp Water Temp Dewpoint Dewpoint Depression Visibility Wind Speed Wind Dir Waves Ship Positions
date/time (UTC)wind fromknots sea level pressurealtimeterstation pressurevisibilityair tempwater tempwave heightnotes
2014-Nov-24 03:40 342 11.7
2014-Nov-24 03:30 342 11.7
2014-Nov-24 03:10 342 12.2
2014-Nov-24 03:00 342 0 12.2
2014-Nov-24 02:45 342 1 12.8
2014-Nov-24 02:30 345 3 12.2
2014-Nov-24 02:10 355 3 12.2
2014-Nov-24 02:00 355 2 12.2
2014-Nov-24 01:55 005 2 12.2
2014-Nov-24 01:40 347 3 12.8
2014-Nov-24 01:25 351 3 12.8
2014-Nov-24 01:10 346 3 12.2
2014-Nov-24 00:50 013 3 12.2
2014-Nov-24 00:40 005 3 12.2
2014-Nov-24 00:30 009 3 12.2
2014-Nov-24 00:05 346 3 12.2
2014-Nov-23 23:45 338 2 12.2
2014-Nov-23 23:30 351 2 12.2
2014-Nov-23 23:10 346 2 12.2
2014-Nov-23 23:00 355 2 12.2
2014-Nov-23 22:55 349 2 12.2
2014-Nov-23 22:45 342 2 12.2
2014-Nov-23 22:30 360 2 12.2
2014-Nov-23 22:05 342 2 12.2
2014-Nov-23 22:00 349 2 12.2
2014-Nov-23 21:45 338 2 12.8
2014-Nov-23 21:30 342 2 12.2
2014-Nov-23 21:15 333 2 12.8
2014-Nov-23 21:00 347 3 12.2
2014-Nov-23 20:55 340 3 12.2
2014-Nov-23 20:45 340 3 12.8
2014-Nov-23 20:30 348 2 12.8
2014-Nov-23 20:15 350 2 12.8
2014-Nov-23 20:00 345 3 12.2
2014-Nov-23 19:55 344 3 12.2
2014-Nov-23 19:45 342 2 12.2
2014-Nov-23 19:15 325 4 12.8
2014-Nov-23 19:00 344 3 12.8
2014-Nov-23 18:55 342 3 12.8
2014-Nov-23 18:45 344 3 12.8
2014-Nov-23 18:30 342 3 12.8
2014-Nov-23 18:15 341 3 12.8
2014-Nov-23 18:00 345 3 12.8
2014-Nov-23 17:50 341 3 12.8
2014-Nov-23 17:40 342 3 12.8
2014-Nov-23 17:20 340 2 13.3
2014-Nov-23 17:15 338 2 13.3
2014-Nov-23 17:00 334 1 13.3
2014-Nov-23 16:55 333 1 13.9
2014-Nov-23 16:45 333 1 13.9
2014-Nov-23 16:15 334 1 13.9
2014-Nov-23 16:00 327 1 13.9
2014-Nov-23 15:45 327 1 13.9
2014-Nov-23 15:30 248 0 14.4
2014-Nov-23 15:15 248 14.4
2014-Nov-23 15:00 248 0 15.0
2014-Nov-23 14:55 248 1 15.0
2014-Nov-23 14:50 248 1 15.0
2014-Nov-23 14:45 248 2 15.0
2014-Nov-23 14:30 217 2 15.6
2014-Nov-23 14:15 254 2 15.0
2014-Nov-23 13:55 210 2 15.0
2014-Nov-23 13:45 191 1 15.6
2014-Nov-23 13:15 200 2 15.0
2014-Nov-23 13:00 191 1 15.0
2014-Nov-23 12:45 192 0 14.4
2014-Nov-23 12:30 164 0 15.0
2014-Nov-23 12:10 211 2 15.0
2014-Nov-23 11:50 176 1 15.0
2014-Nov-23 11:45 170 0 14.4
2014-Nov-23 11:30 174 0 14.4
2014-Nov-23 11:15 176 0 15.0
2014-Nov-23 10:50 108 0 14.4
2014-Nov-23 10:40 108 14.4
2014-Nov-23 10:30 108 0 14.4
2014-Nov-23 10:15 107 0 14.4
2014-Nov-23 09:50 069 0 13.9
2014-Nov-23 09:45 067 0 13.9
2014-Nov-23 09:30 068 0 13.9
2014-Nov-23 09:15 094 0 13.3
2014-Nov-23 08:55 080 13.3
2014-Nov-23 08:50 080 13.3
2014-Nov-23 08:45 080 0 13.3
2014-Nov-23 08:30 072 13.3
2014-Nov-23 08:15 073 0 13.3
2014-Nov-23 08:00 337 13.3
2014-Nov-23 07:55 337 0 12.8
2014-Nov-23 07:50 337 0 12.8
2014-Nov-23 07:45 337 12.8
2014-Nov-23 07:30 336 13.3
2014-Nov-23 07:10 336 1 12.8
2014-Nov-23 06:55 340 0 12.2
2014-Nov-23 06:30 340 2 12.2
2014-Nov-23 06:15 341 2 12.2
2014-Nov-23 06:00 322 1 12.2
2014-Nov-23 05:45 322 0 12.2
2014-Nov-23 05:30 322 1 12.2
2014-Nov-23 05:10 317 0 12.2
2014-Nov-23 05:01 279 0 12.2
2014-Nov-23 04:50 279 12.2
2014-Nov-23 04:35 279 1 12.2
2014-Nov-23 04:25 279 0 12.2
2014-Nov-23 04:15 275 12.2
2014-Nov-23 04:00 275 12.2
2014-Nov-23 03:45 275 12.2
2014-Nov-23 03:25 005 1 12.2
2014-Nov-23 03:10 005 0 12.2
2014-Nov-23 03:00 005 12.2
2014-Nov-23 02:50 360 12.2
2014-Nov-23 02:40 360 12.2
2014-Nov-23 02:25 005 0 12.2
2014-Nov-23 02:15 005 12.2
2014-Nov-23 02:00 005 1 12.2
2014-Nov-23 01:55 005 1 12.2
2014-Nov-23 01:50 018 0 12.2
2014-Nov-23 01:45 340 12.2
2014-Nov-23 01:30 340 12.2
2014-Nov-23 01:15 340 0 12.2
2014-Nov-23 00:45 340 2 12.2
2014-Nov-23 00:25 355 1 12.2
2014-Nov-23 00:15 355 0 12.2
2014-Nov-23 00:00 355 1 12.2
2014-Nov-22 23:55 355 1 12.2
2014-Nov-22 23:45 355 1 12.2
2014-Nov-22 23:30 355 1 12.2
2014-Nov-22 23:15 355 1 12.2
2014-Nov-22 22:55 355 0 12.2
2014-Nov-22 22:40 355 1 12.2
2014-Nov-22 22:30 355 1 12.2
2014-Nov-22 22:15 321 12.2
2014-Nov-22 22:00 321 12.2
2014-Nov-22 21:50 321 0 12.2
2014-Nov-22 21:45 321 0 12.2
2014-Nov-22 21:30 321 12.2
2014-Nov-22 21:15 321 12.2
2014-Nov-22 21:00 321 12.2
2014-Nov-22 20:55 321 12.2
2014-Nov-22 20:40 321 0 12.2
2014-Nov-22 20:30 321 1 12.2
2014-Nov-22 20:15 321 1 12.2
2014-Nov-22 20:00 319 12.2
2014-Nov-22 19:55 319 12.2
2014-Nov-22 19:50 319 12.2
2014-Nov-22 19:45 319 12.2
2014-Nov-22 19:40 319 12.2
2014-Nov-22 19:35 318 0 12.2
2014-Nov-22 19:30 319 0 12.2
2014-Nov-22 19:25 346 1 12.2
2014-Nov-22 19:20 346 1 12.2
2014-Nov-22 19:15 345 2 12.2
2014-Nov-22 19:10 346 2 11.7
2014-Nov-22 19:05 360 2 11.7
2014-Nov-22 19:00 041 1 11.7
2014-Nov-22 18:55 026 0 11.7
2014-Nov-22 18:50 025 0 11.7
2014-Nov-22 18:25 026 11.7
2014-Nov-22 18:15 026 0 11.7
2014-Nov-22 18:00 060 0 11.7
2014-Nov-22 17:55 341 0 12.2
2014-Nov-22 17:45 333 1 12.2
2014-Nov-22 17:30 333 2 12.2
2014-Nov-22 17:15 340 4 12.2
2014-Nov-22 17:00 028 4 11.7
2014-Nov-22 16:45 021 3 11.7
2014-Nov-22 16:05 033 1 12.2
2014-Nov-22 16:00 034 2 11.7
2014-Nov-22 15:35 053 11.7
2014-Nov-22 15:25 054 1 11.7
2014-Nov-22 15:15 054 0 11.7
2014-Nov-22 15:00 054 0 11.7
2014-Nov-22 14:55 055 1 11.7
2014-Nov-22 14:50 054 0 11.7
2014-Nov-22 14:45 055 11.7
2014-Nov-22 14:25 055 11.7
2014-Nov-22 14:15 055 11.7
2014-Nov-22 14:00 055 11.7
2014-Nov-22 13:55 055 11.7
2014-Nov-22 13:50 055 0 11.7
2014-Nov-22 13:45 055 0 11.7
2014-Nov-22 13:30 055 11.7
2014-Nov-22 13:15 055 11.7
2014-Nov-22 13:00 055 11.1
2014-Nov-22 12:50 055 11.1
2014-Nov-22 12:45 055 11.1
2014-Nov-22 12:30 055 11.1
2014-Nov-22 12:15 055 11.1
2014-Nov-22 11:55 055 0 11.1
2014-Nov-22 11:50 055 11.1
2014-Nov-22 11:45 055 11.1
2014-Nov-22 11:25 055 11.1
2014-Nov-22 11:10 055 0 11.1
2014-Nov-22 11:00 055 0 11.1
2014-Nov-22 10:55 043 11.1
2014-Nov-22 10:45 039 11.1
2014-Nov-22 10:30 040 11.1
2014-Nov-22 10:10 039 11.1
2014-Nov-22 09:55 040 11.1
2014-Nov-22 09:50 040 11.1
2014-Nov-22 09:45 040 11.1
2014-Nov-22 09:30 039 11.1
2014-Nov-22 09:15 040 0 11.1
2014-Nov-22 09:00 036 0 11.1
2014-Nov-22 08:55 036 0 11.1
2014-Nov-22 08:50 036 11.1
2014-Nov-22 08:45 036 11.1
2014-Nov-22 08:30 036 10.6
2014-Nov-22 08:15 036 0 10.6
2014-Nov-22 08:00 034 1 10.6
2014-Nov-22 07:45 045 0 10.6
2014-Nov-22 07:30 030 0 10.6
2014-Nov-22 07:10 027 0 10.6
2014-Nov-22 07:00 025 10.6
2014-Nov-22 06:40 038 3 10.6
2014-Nov-22 06:15 040 3 10.6
2014-Nov-22 06:00 053 3 10.6
2014-Nov-22 05:55 030 3 10.0
2014-Nov-22 05:45 045 4 10.0
2014-Nov-22 05:25 049 2 10.0
2014-Nov-22 05:15 046 2 10.0
2014-Nov-22 05:00 042 1 10.0
2014-Nov-22 04:55 054 2 10.6
2014-Nov-22 04:50 048 3 10.6
2014-Nov-22 04:40 044 2 10.6
2014-Nov-22 04:20 038 3 10.6
2014-Nov-22 04:15 038 2 10.6
2014-Nov-22 04:00 024 2 10.6